Weather in Vorzel

Ukraine / Kyiv Region     50°32′16″N   30°08′36″E
temp.,
°C
wind,
m/s
gust,
m/s
humid.,
%
clouds,
%
prec.,
mm/h
press.,
hPa
HPBL,
m
26 february, fri
fri2623:00+2wnw3799100 0.0 1027154
02:00+3w36100100 0.0 1026124
05:00+3wsw3799100 0.0 1025139
08:00+2wsw4109269 0.0 1023208
11:00+5w510950 0.0 1022296
14:00+7w510910 0.0 1020348
17:00+5w499510 0.0 1019168
20:00+4w4119654 0.0 1019204
27 february, sat
sat2723:00+4w3896100 0.0 1018171
02:00+3wnw41094100 0.3 1018309
05:00+2wnw41192100 0.0 1017406
08:00+2wnw51291100 0.0 1018735
11:00+3wnw51082100 0.0 1018822
14:00+4wnw5982100 0.0 1018858
17:00+2nw51197100 0.4 1018609
20:00+2nw51197100 1.2 1020619
28 february, sun
sun2823:00+1nnw4997100 0.1 1020554
02:00+1nnw4997100 0.4 1022580
05:000nnw51097100 0.5 1023498
08:000nnw499392 0.8 1024693
11:00+1nnw5880100 0.2 1024911
14:00+2nw5875100 0.3 10251029
17:00+1wnw4978100 0.1 1023845
20:00+1wnw41087100 0.1 1024538
1 march, mon
mon123:000w2499100 1.4 1023161
02:00+1n2499100 2.3 1024174
05:00+1nne3698100 0.1 1025340
08:00+1n3691100 0.1 1027487
11:00+2n3688100 0.1 1029576
14:00+4nw4675100 0.1 1030905
17:00+3nw388097 0.1 1029500
20:00+1wnw378993 0.1 1030192
2 march, tue
tue223:00+2w498797 0.0 1030303
02:00+2w4109499 0.0 1028293
05:00+2w6129291 0.0 1027359
08:00+3wnw6148595 0.0 1026518
11:00+6wnw71272100 0.0 1025774
14:00+8nw7116892 0.0 1024813
17:00+6nw5127653 0.0 1023610
20:00+4nw5148727 0.0 1024522